Tracking 28052 objects as of 21-Sep-2023
HD Live streaming from Space Station
objects crossing your sky now

BLOCK DM-SL R/B

Track BLOCK DM-SL R/B now!
10-day predictions


NORAD ID: 32730
Int'l Code: 2008-013B
Perigee: 251.5 km
Apogee: 20,591.0 km
Inclination: 0.4 °
Period: 360.9 minutes
Semi major axis: 16792 km
RCS: 20.4628 m2 (large)
Launch date: March 19, 2008
Source: Sea Launch (SEAL)
Launch site: SEA LAUNCH (SEAL)

Note: This is a ROCKET BODY
Your satellite tracking list
Your tracking list is empty




NASA's NSSDC Master Catalog

Two Line Element Set (TLE):
1 32730U 08013B   23263.53770131  .00011113  00000-0  11205-2 0  9998
2 32730   0.4260 124.5316 6056220   0.3267 307.6494  3.98968766163252
Source of the keplerian elements: AFSPC